Find Starlink 30884

NORAD ID: 58372 Int'l Des: 2023-177 Owner: SPXS Country: US Constellation: starlink operational
LEOCIRCULAR

实时位置

正在加载3D地球...

关于 Starlink 30884

正在加载描述...

即将过境

Passes for default location (London). Set your location on the main map for personalized predictions.

高度历史

Loading altitude history...

两行轨道根数

1 58372U 23177X 26121.19943479 .00001957 00000-0 80586-4 0 9996
2 58372 43.0044 54.4342 0000893 287.4187 72.6567 15.27586279136253
Epoch: May 1, 2026 • Age: 12 hours

当前状态

高度 495.7 km
速度 7.62 km/s
星下点 -42.95°S, 145.71°W
发射日期 Nov 18, 2023
运行时间 2.4 years
类型 internet

技术详情

分类 Payload
质量 730.00 kg
干质量 700.00 kg
总质量 730.00 kg
长度 0.30 m
直径 4.10 m
跨度 29.00 m
形状 Box + pan
制造商 SPXS
平台类型 Starlink V2M
阶段状态 In Orbit
所有者/国家 SPXS/US

Most Searched